TimeHST,TemperatureF,Dew PointF,Humidity,Sea Level PressureIn,VisibilityMPH,Wind Direction,Wind SpeedMPH,Gust SpeedMPH,PrecipitationIn,Events,Conditions,WindDirDegrees,DateUTC
12:56 AM,75.0,66.0,73,30.01,10.0,ESE,6.9,-,N/A,,Partly Cloudy,120,2013-04-28 10:56:00
1:56 AM,73.9,66.9,79,29.99,10.0,SE,8.1,-,N/A,,Partly Cloudy,140,2013-04-28 11:56:00
2:56 AM,73.9,68.0,82,29.97,10.0,SE,8.1,-,N/A,,Clear,140,2013-04-28 12:56:00
3:56 AM,73.0,68.0,84,29.97,10.0,SE,8.1,-,N/A,,Overcast,140,2013-04-28 13:56:00
4:56 AM,73.9,68.0,82,29.97,10.0,SE,8.1,-,N/A,,Partly Cloudy,140,2013-04-28 14:56:00
5:56 AM,73.0,69.1,87,29.98,10.0,SSE,8.1,-,N/A,,Partly Cloudy,150,2013-04-28 15:56:00
6:19 AM,73.4,69.8,88,29.97,10.0,SE,8.1,-,N/A,,Mostly Cloudy,140,2013-04-28 16:19:00
6:56 AM,73.0,64.9,76,29.99,10.0,SE,11.5,23.0,N/A,,Mostly Cloudy,130,2013-04-28 16:56:00
7:03 AM,71.6,64.4,78,29.98,10.0,SE,9.2,18.4,N/A,,Scattered Clouds,140,2013-04-28 17:03:00
7:56 AM,77.0,69.1,76,29.99,10.0,SSE,12.7,19.6,N/A,,Clear,150,2013-04-28 17:56:00
8:47 AM,78.8,69.8,74,29.98,10.0,SSE,13.8,23.0,N/A,,Mostly Cloudy,150,2013-04-28 18:47:00
8:54 AM,78.8,68.0,69,29.98,10.0,SSE,16.1,23.0,N/A,,Mostly Cloudy,160,2013-04-28 18:54:00
8:56 AM,78.1,68.0,71,29.99,10.0,SSE,15.0,23.0,N/A,,Mostly Cloudy,160,2013-04-28 18:56:00
9:09 AM,78.8,68.0,69,29.98,10.0,SSE,13.8,21.9,N/A,,Mostly Cloudy,160,2013-04-28 19:09:00
9:22 AM,78.8,68.0,69,29.98,10.0,SSE,12.7,23.0,N/A,,Mostly Cloudy,160,2013-04-28 19:22:00
9:56 AM,80.1,69.1,69,29.99,10.0,South,15.0,24.2,N/A,,Partly Cloudy,170,2013-04-28 19:56:00
10:21 AM,80.6,69.8,70,29.98,10.0,SSE,15.0,25.3,N/A,,Mostly Cloudy,160,2013-04-28 20:21:00
10:35 AM,80.6,69.8,70,29.98,10.0,SSE,19.6,25.3,N/A,,Scattered Clouds,150,2013-04-28 20:35:00
10:56 AM,81.0,69.1,67,29.99,10.0,SSE,12.7,26.5,N/A,,Clear,150,2013-04-28 20:56:00
11:56 AM,81.0,68.0,65,29.98,10.0,SSE,17.3,25.3,N/A,,Partly Cloudy,150,2013-04-28 21:56:00
12:56 PM,81.0,68.0,65,29.97,10.0,SSE,16.1,24.2,N/A,,Partly Cloudy,160,2013-04-28 22:56:00
1:56 PM,81.0,70.0,69,29.95,10.0,SSE,13.8,23.0,N/A,,Scattered Clouds,150,2013-04-28 23:56:00
2:10 PM,82.4,69.8,66,29.94,10.0,SSE,15.0,24.2,N/A,,Mostly Cloudy,150,2013-04-29 00:10:00
2:56 PM,81.0,69.1,67,29.93,10.0,SSE,17.3,24.2,N/A,,Mostly Cloudy,150,2013-04-29 00:56:00
3:56 PM,81.0,70.0,69,29.92,10.0,SE,16.1,24.2,N/A,,Mostly Cloudy,140,2013-04-29 01:56:00
4:56 PM,79.0,69.1,72,29.92,10.0,SSE,10.4,20.7,N/A,,Mostly Cloudy,150,2013-04-29 02:56:00
5:18 PM,78.8,69.8,74,29.91,10.0,SSE,12.7,-,N/A,,Scattered Clouds,150,2013-04-29 03:18:00
5:56 PM,78.1,68.0,71,29.93,10.0,SSE,12.7,18.4,N/A,,Clear,150,2013-04-29 03:56:00
6:56 PM,77.0,69.1,76,29.94,10.0,SE,10.4,18.4,N/A,,Scattered Clouds,140,2013-04-29 04:56:00
7:56 PM,75.9,69.1,79,29.95,10.0,SSE,8.1,-,N/A,,Partly Cloudy,160,2013-04-29 05:56:00
8:56 PM,73.9,69.1,85,29.97,10.0,SE,9.2,-,N/A,,Clear,140,2013-04-29 06:56:00
9:56 PM,73.9,69.1,85,29.98,10.0,SSE,6.9,-,N/A,,Scattered Clouds,150,2013-04-29 07:56:00
10:56 PM,73.9,69.1,85,29.98,10.0,SE,8.1,-,N/A,,Clear,140,2013-04-29 08:56:00
11:30 PM,75.2,69.8,83,29.96,10.0,SE,10.4,-,N/A,,Mostly Cloudy,140,2013-04-29 09:30:00
11:48 PM,73.4,69.8,88,29.96,10.0,SE,8.1,-,N/A,,Scattered Clouds,140,2013-04-29 09:48:00
11:56 PM,75.0,69.1,82,29.97,10.0,SE,9.2,-,N/A,,Scattered Clouds,130,2013-04-29 09:56:00